Location: Warszawa
(52.2463°N, 21.0173°E)
Time: 23:30:01
(UTC+02:00)

ISS - Visible Passes

Search period start: 23 September 2018 00:00
Search period end: 03 October 2018 00:00
Orbit: 403 x 408 km, 51.6° (Epoch: 23 September)

Date Brightness Start Highest point End Pass type
(mag) Time Alt. Az. Time Alt. Az. Time Alt. Az.
23 Sep -1.9 19:37:24 10° S 19:39:18 15° SE 19:39:38 14° SE visible
23 Sep -1.0 21:12:04 10° SW 21:12:21 12° SW 21:12:21 12° SW visible
24 Sep -2.8 20:20:24 10° SW 20:22:54 33° S 20:22:54 33° S visible
25 Sep -2.5 19:28:56 10° SSW 19:31:42 25° SSE 19:33:18 17° ESE visible
25 Sep -1.7 21:04:36 10° WSW 21:05:59 23° WSW 21:05:59 23° WSW visible
26 Sep -3.7 20:12:47 10° WSW 20:16:00 54° SSE 20:16:15 53° SE visible
27 Sep -3.2 19:21:02 10° SW 19:24:10 40° SSE 19:26:26 16° E visible
27 Sep -2.2 20:57:12 10° W 20:59:07 32° W 20:59:07 32° W visible
28 Sep -3.9 20:05:17 10° WSW 20:08:35 73° S 20:09:12 53° ESE visible
28 Sep -0.5 21:41:45 10° W 21:41:52 11° W 21:41:52 11° W visible
29 Sep -3.7 19:13:23 10° WSW 19:16:39 60° SSE 19:19:14 15° E visible
29 Sep -2.4 20:49:47 10° W 20:51:54 37° W 20:51:54 37° W visible
30 Sep -3.9 19:57:50 10° W 20:01:08 82° S 20:01:54 50° E visible
30 Sep -0.5 21:34:19 10° W 21:34:34 12° W 21:34:34 12° W visible
01 Oct -3.8 19:05:51 10° WSW 19:09:10 77° S 19:11:53 14° E visible
01 Oct -2.5 20:42:20 10° W 20:44:32 38° W 20:44:32 38° W visible
02 Oct -3.9 19:50:20 10° W 19:53:39 78° S 19:54:30 46° ESE visible
02 Oct -0.5 21:26:54 10° W 21:27:09 12° W 21:27:09 12° W visible
